When you browse on this site, cookies collect data to enhance your experience and personalize the content and advertising you see.
Visit our Privacy Policy to learn more. By continuing to use the site, you agree to this use of cookies and data.
  • In Lithuania
  • List of Countries
  • For 7 days
  • Water Temperature
  • Satellite Maps
  • Weather Map
  • Weather Widgets
  • user-avatar
    Login

    Hourly Weather Minaevka

    Today, 21 May, Tuesday

    Time Temperature Precipitation Wind Pressure Humidity
    00:00 +8°C° 0 mm 1 mps 742 mmHg 58%
    01:00 +7°C° 0 mm 1 mps 742 mmHg 61%
    02:00 +6°C° 0 mm 1 mps 742 mmHg 65%
    03:00 +6°C° 0 mm 1 mps 742 mmHg 69%
    04:00 +7°C° 0 mm 1 mps 742 mmHg 67%
    05:00 +8°C° 0 mm 1 mps 742 mmHg 66%
    06:00 +9°C° 0 mm 1 mps 741 mmHg 64%
    07:00 +10°C° 0 mm 1 mps 741 mmHg 59%
    08:00 +12°C° 0 mm 1 mps 741 mmHg 53%
    09:00 +14°C° 0 mm 1 mps 741 mmHg 48%
    10:00 +14°C° 0 mm 1 mps 741 mmHg 45%
    11:00 +15°C° 0 mm 2 mps 741 mmHg 42%
    12:00 +16°C° 0 mm 2 mps 740 mmHg 39%
    13:00 +16°C° 0 mm 3 mps 740 mmHg 40%
    14:00 +16°C° 0 mm 3 mps 740 mmHg 41%
    15:00 +14°C° 0 mm 3 mps 740 mmHg 42%
    16:00 +15°C° 0.3 mm 2 mps 740 mmHg 49%
    17:00 +14°C° 0.3 mm 2 mps 740 mmHg 56%
    18:00 +13°C° 0.3 mm 1 mps 740 mmHg 62%
    19:00 +12°C° 0.3 mm 1 mps 740 mmHg 69%
    20:00 +10°C° 0.3 mm 1 mps 740 mmHg 76%
    21:00 +9°C° 0.3 mm 1 mps 741 mmHg 83%
    22:00 +9°C° 0.1 mm 1 mps 741 mmHg 86%
    23:00 +8°C° 0.1 mm 1 mps 741 mmHg 88%

    Tomorrow, 22 May, Wednesday

    Time Temperature Precipitation Wind Pressure Humidity
    00:00 +7°C° 0.1 mm 2 mps 741 mmHg 91%
    01:00 +7°C° 0.1 mm 2 mps 741 mmHg 91%
    02:00 +6°C° 0.1 mm 2 mps 741 mmHg 92%
    03:00 +6°C° 0.1 mm 2 mps 742 mmHg 92%
    04:00 +6°C° 0.1 mm 2 mps 742 mmHg 91%
    05:00 +6°C° 0.1 mm 2 mps 743 mmHg 90%
    06:00 +7°C° 0.1 mm 2 mps 743 mmHg 89%
    07:00 +8°C° 0.3 mm 2 mps 743 mmHg 83%
    08:00 +9°C° 0.3 mm 3 mps 743 mmHg 77%
    09:00 +11°C° 0.3 mm 3 mps 744 mmHg 71%
    10:00 +11°C° 0.5 mm 3 mps 744 mmHg 67%
    11:00 +12°C° 0.5 mm 4 mps 744 mmHg 63%
    12:00 +12°C° 0.5 mm 4 mps 744 mmHg 59%
    13:00 +13°C° 0.4 mm 4 mps 744 mmHg 54%
    14:00 +14°C° 0.4 mm 5 mps 744 mmHg 50%
    15:00 +14°C° 0.4 mm 5 mps 744 mmHg 45%
    16:00 +14°C° 0 mm 4 mps 743 mmHg 44%
    17:00 +14°C° 0 mm 4 mps 743 mmHg 44%
    18:00 +13°C° 0 mm 3 mps 743 mmHg 43%
    19:00 +11°C° 0 mm 3 mps 743 mmHg 50%
    20:00 +10°C° 0 mm 2 mps 743 mmHg 58%
    21:00 +9°C° 0 mm 1 mps 743 mmHg 65%
    22:00 +8°C° 0.3 mm 1 mps 743 mmHg 71%
    23:00 +7°C° 0.3 mm 1 mps 743 mmHg 77%

    Day after tomorrow, 23 May, Thursday

    Time Temperature Precipitation Wind Pressure Humidity
    00:00 +6°C° 0.3 mm 1 mps 743 mmHg 83%
    01:00 +6°C° 0 mm 1 mps 744 mmHg 86%
    02:00 +5°C° 0 mm 1 mps 744 mmHg 89%
    03:00 +5°C° 0 mm 1 mps 744 mmHg 92%
    04:00 +5°C° 0 mm 1 mps 745 mmHg 89%
    05:00 +6°C° 0 mm 1 mps 745 mmHg 86%
    06:00 +5°C° 0 mm 2 mps 746 mmHg 83%
    07:00 +7°C° 0 mm 2 mps 746 mmHg 71%
    08:00 +9°C° 0 mm 2 mps 746 mmHg 59%
    09:00 +10°C° 0 mm 2 mps 746 mmHg 47%
    10:00 +11°C° 0 mm 3 mps 747 mmHg 41%
    11:00 +12°C° 0 mm 3 mps 747 mmHg 36%
    12:00 +13°C° 0 mm 4 mps 747 mmHg 31%
    13:00 +14°C° 0 mm 4 mps 747 mmHg 30%
    14:00 +14°C° 0 mm 4 mps 747 mmHg 29%
    15:00 +14°C° 0 mm 4 mps 747 mmHg 28%
    16:00 +14°C° 0 mm 3 mps 747 mmHg 28%
    17:00 +14°C° 0 mm 3 mps 747 mmHg 29%
    18:00 +14°C° 0 mm 3 mps 748 mmHg 30%
    19:00 +13°C° 0 mm 2 mps 748 mmHg 36%
    20:00 +9°C° 0 mm 2 mps 748 mmHg 43%
    21:00 +8°C° 0 mm 1 mps 749 mmHg 49%
    22:00 +8°C° 0 mm 1 mps 749 mmHg 50%
    23:00 +7°C° 0 mm 1 mps 749 mmHg 51%

    24 May, Friday

    Time Temperature Precipitation Wind Pressure Humidity
    00:00 +7°C° 0 mm 1 mps 749 mmHg 52%
    01:00 +7°C° 0 mm 1 mps 750 mmHg 53%
    02:00 +7°C° 0 mm 2 mps 750 mmHg 53%
    03:00 +7°C° 0 mm 2 mps 750 mmHg 54%
    04:00 +8°C° 0 mm 2 mps 750 mmHg 58%
    05:00 +8°C° 0 mm 2 mps 750 mmHg 62%
    06:00 +9°C° 0 mm 2 mps 750 mmHg 66%
    07:00 +10°C° 0 mm 3 mps 750 mmHg 57%
    08:00 +12°C° 0 mm 4 mps 750 mmHg 49%
    09:00 +14°C° 0 mm 5 mps 750 mmHg 41%
    10:00 +15°C° 0 mm 5 mps 749 mmHg 39%
    11:00 +15°C° 0 mm 5 mps 749 mmHg 36%
    12:00 +16°C° 0 mm 6 mps 749 mmHg 34%
    13:00 +16°C° 0 mm 6 mps 748 mmHg 36%
    14:00 +16°C° 0 mm 6 mps 748 mmHg 37%
    15:00 +16°C° 0 mm 6 mps 748 mmHg 38%
    16:00 +13°C° 0.5 mm 5 mps 748 mmHg 53%
    17:00 +10°C° 0.5 mm 5 mps 747 mmHg 68%
    18:00 +8°C° 0.5 mm 4 mps 747 mmHg 83%
    19:00 +8°C° 0.8 mm 4 mps 746 mmHg 83%
    20:00 +8°C° 0.8 mm 4 mps 746 mmHg 84%
    21:00 +8°C° 0.8 mm 4 mps 745 mmHg 85%
    22:00 +10°C° 0.1 mm 4 mps 745 mmHg 84%
    23:00 +10°C° 0.1 mm 5 mps 744 mmHg 82%

    25 May, Saturday

    Time Temperature Precipitation Wind Pressure Humidity
    00:00 +13°C° 0.1 mm 5 mps 744 mmHg 80%
    01:00 +13°C° 0 mm 5 mps 744 mmHg 80%
    02:00 +13°C° 0 mm 4 mps 744 mmHg 80%
    03:00 +13°C° 0 mm 4 mps 744 mmHg 79%
    04:00 +13°C° 0.1 mm 4 mps 744 mmHg 78%
    05:00 +13°C° 0.1 mm 4 mps 743 mmHg 76%
    06:00 +14°C° 0.1 mm 4 mps 743 mmHg 75%
    07:00 +14°C° 0.1 mm 5 mps 743 mmHg 73%
    08:00 +14°C° 0.1 mm 5 mps 743 mmHg 71%
    09:00 +15°C° 0.1 mm 5 mps 743 mmHg 69%
    10:00 +17°C° 0.1 mm 6 mps 742 mmHg 58%
    11:00 +21°C° 0.1 mm 6 mps 742 mmHg 48%
    12:00 +23°C° 0.1 mm 7 mps 741 mmHg 38%
    13:00 +22°C° 0.1 mm 6 mps 741 mmHg 40%
    14:00 +22°C° 0.1 mm 6 mps 741 mmHg 43%
    15:00 +21°C° 0.1 mm 6 mps 740 mmHg 45%
    16:00 +19°C° 0.8 mm 5 mps 740 mmHg 60%
    17:00 +15°C° 0.8 mm 4 mps 740 mmHg 74%
    18:00 +13°C° 0.8 mm 4 mps 740 mmHg 88%
    19:00 +12°C° 0.7 mm 3 mps 741 mmHg 90%
    20:00 +12°C° 0.7 mm 3 mps 741 mmHg 92%
    21:00 +12°C° 0.7 mm 2 mps 741 mmHg 94%
    22:00 +10°C° 0.2 mm 3 mps 742 mmHg 93%
    23:00 +9°C° 0.2 mm 3 mps 742 mmHg 92%

    26 May, Sunday

    Time Temperature Precipitation Wind Pressure Humidity
    00:00 +8°C° 0.2 mm 3 mps 742 mmHg 91%
    01:00 +7°C° 0 mm 3 mps 743 mmHg 90%
    02:00 +5°C° 0 mm 3 mps 743 mmHg 90%
    03:00 +5°C° 0 mm 3 mps 744 mmHg 90%
    04:00 +5°C° 0 mm 3 mps 744 mmHg 88%
    05:00 +5°C° 0 mm 3 mps 745 mmHg 86%
    06:00 +7°C° 0 mm 3 mps 745 mmHg 84%
    07:00 +7°C° 0.6 mm 3 mps 745 mmHg 84%
    08:00 +7°C° 0.6 mm 3 mps 745 mmHg 85%
    09:00 +7°C° 0.6 mm 3 mps 745 mmHg 86%
    10:00 +6°C° 0.5 mm 4 mps 745 mmHg 80%
    11:00 +7°C° 0.5 mm 4 mps 745 mmHg 74%
    12:00 +8°C° 0.5 mm 5 mps 745 mmHg 68%
    13:00 +8°C° 0.4 mm 5 mps 746 mmHg 62%
    14:00 +9°C° 0.4 mm 5 mps 747 mmHg 55%
    15:00 +10°C° 0.4 mm 6 mps 747 mmHg 49%
    16:00 +9°C° 0.3 mm 5 mps 748 mmHg 49%
    17:00 +9°C° 0.3 mm 5 mps 748 mmHg 48%
    18:00 +9°C° 0.3 mm 5 mps 749 mmHg 48%
    19:00 +8°C° 0 mm 4 mps 749 mmHg 52%
    20:00 +7°C° 0 mm 4 mps 750 mmHg 56%
    21:00 +5°C° 0 mm 3 mps 750 mmHg 61%
    22:00 +5°C° 0 mm 3 mps 751 mmHg 66%
    23:00 +5°C° 0 mm 3 mps 751 mmHg 71%
    Show more